Temperature
26 25 25 25 26 26 26 25 25 25 26 25 24 24 24 24 24 23 23 22 21 21 20 20 19 19 18 18 18 17 17 17 17 17 16 16 16 16 16 16 16 16 15 15
26 25 26 27 26 26 26 25 25 25 26 25 24 24 24 24 24 23 23 22 22 21 20 19 19 18 18 18 17 17 17 17 17 16 16 16 16 15 15 15 15 16 15 15
25 26 27 26 26 26 26 25 25 24 25 25 24 23 24 24 24 23 22 22 22 21 20 19 19 18 18 17 17 17 17 17 16 16 16 16 16 15 15 15 15 15 15 15
26 26 26 26 25 25 25 25 25 24 24 23 24 22 23 23 23 23 22 22 21 21 20 19 19 18 17 17 17 17 17 16 16 16 16 16 15 15 15 15 15 15 15 15
25 26 25 25 25 25 25 25 25 24 24 23 24 23 23 23 23 22 22 22 21 21 20 19 18 18 17 17 17 17 17 16 16 16 16 15 15 15 15 15 15 15 15 15
25 26 26 25 26 26 25 25 25 24 24 22 24 24 22 23 23 23 22 22 21 20 20 19 18 18 17 17 17 17 16 16 16 16 16 15 15 15 15 15 15 15 15 15
25 25 25 25 25 25 25 23 22 22 22 22 25 24 23 23 24 24 23 22 21 20 20 19 18 17 17 17 16 16 16 16 16 16 15 15 15 15 15 15 15 14 14 14
24 24 25 25 24 24 24 24 22 21 22 23 24 23 23 24 24 23 22 22 21 20 19 19 18 17 17 17 16 16 16 16 16 15 15 15 15 15 15 15 14 14 14 14
24 24 25 25 25 25 24 24 24 23 23 23 23 23 23 23 23 23 22 21 21 20 19 18 18 17 17 16 16 16 16 15 15 15 15 15 15 15 15 14 14 14 14 14
24 23 24 25 24 24 24 24 23 22 21 22 22 22 21 22 22 22 22 21 20 20 19 18 18 17 17 16 16 16 16 15 15 15 15 15 15 15 14 14 14 14 14 14
24 23 24 24 23 23 23 23 23 22 22 21 21 21 22 22 22 22 21 21 20 19 19 18 17 17 16 16 16 16 15 15 15 15 15 15 14 14 14 14 14 14 14 14
24 23 23 24 24 24 24 23 23 21 21 22 21 20 23 22 22 22 21 21 20 19 18 18 17 17 16 16 16 15 15 15 15 15 15 14 14 14 14 14 14 14 14 14
22 22 22 22 22 23 23 23 23 22 22 21 20 20 22 22 22 22 21 20 19 19 18 17 17 16 16 16 15 15 15 15 15 15 14 14 14 14 14 14 14 13 13 13
21 22 21 21 22 22 22 22 22 22 20 20 21 21 21 21 21 21 20 20 19 18 18 17 16 16 16 15 15 15 15 15 14 14 14 14 14 14 14 13 13 13 13 13
22 21 22 22 22 22 22 22 22 21 21 20 21 21 21 21 21 21 20 19 19 18 17 17 16 16 15 15 14 14 14 14 14 14 14 14 14 13 13 13 13 13 13 13
21 21 21 21 22 22 21 21 21 21 21 21 21 20 21 21 21 20 20 19 18 18 17 16 16 15 15 14 14 14 14 14 13 13 13 13 13 13 13 13 13 13 13 13
21 21 20 20 21 21 20 21 21 21 21 21 20 20 21 20 20 19 19 18 17 17 16 16 15 15 14 14 14 13 13 13 13 13 13 13 13 13 13 12 12 12 12 12
20 20 19 19 19 19 20 22 22 21 21 21 21 20 20 20 19 18 18 17 17 16 16 15 15 14 14 14 13 13 13 13 12 12 12 12 12 12 12 12 12 12 12 12
20 19 19 18 18 19 20 21 21 20 20 20 20 20 20 19 18 18 17 17 16 16 15 15 14 14 14 13 13 13 12 12 12 12 12 12 12 12 11 11 11 11 11 11
20 20 18 18 17 18 19 20 20 19 18 19 19 19 19 18 17 17 17 16 16 15 15 14 14 13 13 13 12 12 12 12 12 12 11 11 11 11 11 11 11 11 11 10
19 18 18 17 17 18 19 19 19 18 17 18 18 18 18 17 16 16 16 15 15 14 14 13 13 13 12 12 12 12 12 12 11 11 11 11 11 11 10 10 10 10 10 10
19 18 18 18 17 17 18 18 18 18 18 18 17 17 17 16 16 15 15 14 14 13 13 13 12 12 12 12 11 11 11 11 11 11 11 10 10 10 10 10 10 10 9 9
19 19 18 18 17 18 18 18 18 17 17 17 16 16 16 15 15 14 14 13 13 13 12 12 12 11 11 11 11 11 10 10 10 10 10 10 10 10 10 9 9 9 9 9
19 19 18 17 18 18 18 17 17 16 16 16 15 15 15 14 14 13 13 13 12 12 12 11 11 11 10 10 10 10 10 10 10 10 10 10 10 9 9 9 9 9 9 9
17 17 17 16 17 17 17 16 16 15 15 15 15 14 14 14 13 13 12 12 11 11 11 11 10 10 10 10 10 9 9 9 9 9 9 9 9 9 9 9 9 9 9 8
17 17 16 16 16 16 16 16 15 15 14 14 14 13 13 13 13 12 12 11 11 11 10 10 10 10 9 9 9 9 9 9 9 9 9 9 8 8 8 8 8 8 8 8
Wind_Speed
7 7 5 3 4 6 5 4 3 1 3 2 3 3 4 6 6 6 6 6 6 7 6 6 5 5 5 4 4 4 3 4 4 3 2 2 2 2 2 2 4 5 4 4
7 7 4 3 4 6 7 5 2 1 2 2 3 4 4 6 6 5 5 6 7 7 7 7 5 5 4 4 3 3 3 3 4 3 2 2 2 2 2 2 3 4 4 3
6 2 2 5 6 6 6 3 3 3 2 5 5 5 6 8 7 6 3 3 6 7 7 7 6 5 4 4 3 3 3 3 3 3 3 2 2 2 2 1 1 2 3 3
6 4 4 5 5 5 5 2 3 5 6 4 5 3 5 8 9 8 6 4 5 6 6 6 5 5 4 3 3 3 3 3 3 4 3 3 2 2 1 1 1 1 1 2
4 3 5 5 4 5 5 5 7 9 8 8 8 5 4 8 9 9 8 6 5 6 6 6 5 5 4 4 2 2 3 2 2 3 4 3 2 1 1 1 2 1 1 1
6 5 4 4 4 5 6 8 10 10 8 8 8 5 2 4 7 8 8 7 6 7 7 6 5 5 4 4 3 2 3 2 2 2 3 3 2 1 2 2 1 0 0 0
8 7 5 4 5 5 6 6 4 4 5 4 2 2 1 5 5 6 7 7 7 7 7 6 5 5 4 4 3 3 3 3 2 2 2 3 2 2 2 2 1 1 1 0
7 6 5 3 4 4 6 7 4 4 4 3 2 2 4 7 7 6 6 6 6 6 6 6 6 5 4 4 4 3 4 3 3 3 2 2 2 1 1 2 1 2 1 1
5 2 4 4 4 6 6 6 7 7 9 7 2 3 5 6 7 6 6 6 5 5 5 6 6 5 4 4 4 3 4 4 4 3 3 3 2 2 1 1 1 1 1 1
7 7 4 4 5 8 7 7 5 4 5 5 3 1 3 5 5 5 5 5 5 4 4 5 6 5 4 4 4 4 4 4 4 4 3 2 2 2 2 1 1 1 1 1
7 7 6 5 6 5 5 6 4 4 5 5 3 1 2 4 4 3 4 4 4 4 3 4 4 4 4 3 3 3 3 3 3 4 3 3 2 3 3 2 1 1 0 0
5 6 8 7 4 3 4 5 6 4 5 5 4 1 3 4 3 3 4 4 4 3 3 3 4 4 3 3 2 2 2 2 3 3 3 3 3 3 3 2 2 1 1 1
6 6 7 5 4 4 6 5 5 6 6 6 5 2 4 2 2 3 4 4 4 4 3 3 3 3 3 2 2 2 2 2 2 2 2 2 2 2 2 2 2 1 1 2
4 7 9 8 6 4 6 7 7 7 6 7 7 4 2 1 1 2 2 3 3 4 3 3 3 2 2 2 2 1 1 2 2 2 2 2 2 1 1 1 1 1 1 1
5 8 10 11 9 9 10 11 10 10 10 9 8 7 4 1 1 2 1 2 3 3 3 3 3 2 2 2 1 1 1 1 1 1 2 2 1 1 1 1 1 0 1 1
6 8 10 11 11 10 12 12 11 11 10 10 9 8 3 2 2 1 1 2 1 1 2 2 2 2 2 2 2 1 1 0 1 2 2 1 2 1 1 1 0 0 1 1
6 7 9 9 10 10 10 8 8 8 8 8 8 3 1 2 1 2 2 2 1 0 0 1 2 1 2 3 2 2 1 1 1 2 2 2 2 2 2 1 0 1 1 1
8 8 6 8 9 10 4 1 1 4 5 4 3 1 0 1 1 2 2 1 1 1 1 0 0 0 0 1 1 2 2 1 1 1 2 2 2 2 2 1 1 1 0 0
9 7 5 6 8 8 5 2 1 3 5 3 3 1 1 2 1 1 2 2 2 1 1 1 0 1 1 0 1 1 2 2 1 1 2 2 2 2 2 2 1 1 1 1
9 8 6 6 7 7 2 2 2 2 3 1 2 2 2 1 2 1 3 3 3 2 2 1 1 1 1 1 1 2 2 2 2 1 1 2 2 2 2 2 2 1 1 1
7 8 9 9 9 7 1 1 1 2 1 4 4 4 2 2 2 2 3 3 3 2 2 2 2 1 1 1 1 1 1 1 1 1 1 2 2 2 2 1 1 1 1 1
7 5 7 7 8 5 1 0 1 2 4 4 4 4 4 3 3 2 2 2 2 2 2 2 1 1 1 1 1 0 0 1 1 1 1 1 2 2 1 1 1 1 1 1
6 4 3 3 3 1 2 1 2 4 3 4 4 5 3 2 1 1 1 1 1 1 1 1 1 1 0 0 1 0 0 1 1 1 1 2 2 1 1 1 1 1 1 1
5 4 4 5 4 2 1 1 1 2 3 4 4 4 2 1 1 1 1 0 0 0 1 1 1 0 0 0 0 0 0 1 1 1 1 1 1 1 1 1 1 1 2 2
6 5 5 7 6 4 2 1 1 1 2 3 4 3 2 2 1 1 1 1 1 1 0 1 1 1 0 1 1 1 1 0 1 1 1 1 1 1 0 0 1 2 2 2
8 8 8 7 5 5 4 2 1 2 2 2 3 3 3 2 1 1 1 1 1 1 0 1 1 1 0 1 1 1 1 1 1 1 1 1 1 1 1 1 1 1 2 2
Wind_Direction
219 232 238 241 252 280 295 285 290 122 137 208 221 216 178 171 171 175 169 163 154 142 132 118 115 108 103 90 89 90 81 95 93 82 79 80 75 71 69 57 69 74 68 73
233 227 249 275 267 274 279 277 273 149 141 252 222 225 188 166 165 166 168 161 152 143 132 126 124 118 112 103 94 100 98 90 102 104 103 111 115 109 96 56 62 64 67 75
247 235 260 258 256 264 267 284 319 310 278 245 234 227 200 160 149 146 153 151 142 143 140 141 140 126 129 124 118 108 106 103 104 112 101 89 85 93 92 97 74 56 65 79
244 245 256 260 263 282 287 339 308 282 270 251 227 244 198 168 158 160 163 162 145 134 133 135 133 135 136 126 121 121 115 113 118 115 107 108 113 117 132 128 124 111 87 82
245 242 260 263 273 285 296 307 274 267 270 273 251 246 202 171 166 162 160 161 153 140 138 137 137 139 135 121 111 111 114 103 108 125 121 127 112 129 111 94 120 135 128 96
246 244 253 271 271 264 282 278 261 247 254 257 243 233 199 166 167 157 151 152 154 145 137 133 130 128 126 127 130 121 123 123 110 120 135 136 135 142 115 104 106 131 102 110
233 224 214 243 263 246 263 281 275 229 219 234 211 213 135 107 101 121 140 147 151 145 143 140 136 139 136 136 146 153 142 137 144 148 147 155 163 174 168 149 155 173 180 176
246 225 195 209 258 265 254 260 272 290 282 280 225 185 116 99 97 101 124 132 135 136 139 142 146 148 148 152 159 167 160 159 161 168 171 179 171 160 170 173 171 182 184 188
295 264 182 193 238 268 265 262 279 289 291 281 220 143 128 120 118 114 125 134 136 136 137 145 149 151 155 161 165 175 174 169 171 185 192 191 170 156 167 187 163 161 187 203
288 292 248 194 221 234 255 282 282 269 286 284 264 207 136 133 123 122 138 143 142 139 143 147 150 154 160 160 167 177 186 179 176 184 193 189 181 176 182 177 169 162 188 196
280 273 259 215 219 238 233 254 266 277 272 284 292 13 69 117 119 133 139 132 131 134 139 139 141 148 151 149 158 173 183 182 173 185 188 193 184 175 172 170 188 181 165 179
283 278 270 252 196 220 242 256 266 268 277 284 287 279 98 113 125 134 134 128 122 125 126 121 131 138 147 155 156 167 173 174 178 189 187 188 175 177 175 174 180 200 210 235
322 277 275 253 204 208 233 243 264 277 275 271 266 221 145 133 104 93 110 121 127 128 131 133 127 135 149 153 157 176 167 163 166 180 174 171 184 183 178 174 179 209 220 224
304 269 272 276 290 280 262 262 256 255 258 262 264 262 207 160 91 91 102 130 133 140 146 139 137 150 157 159 167 174 156 152 154 154 163 178 189 177 168 174 164 202 255 235
270 271 279 282 286 288 281 270 258 254 257 262 269 278 286 258 139 134 135 145 147 150 156 156 162 169 165 158 157 125 115 115 143 149 165 182 170 138 123 111 111 270 301 285
254 271 283 280 273 269 268 266 259 252 256 258 263 268 299 338 46 63 111 118 143 163 170 170 182 180 185 192 179 168 132 166 171 150 144 143 141 134 130 125 120 16 327 314
259 272 282 278 283 279 263 256 252 256 251 249 259 269 349 336 23 32 58 97 96 54 102 184 192 199 212 201 186 169 165 184 177 152 150 140 140 137 127 127 76 286 261 306
269 275 274 276 278 261 267 349 260 264 275 281 279 339 12 351 28 72 63 78 68 36 19 30 111 149 257 163 158 149 151 173 158 134 139 146 149 152 150 147 169 284 295 297
246 253 260 265 272 273 266 274 261 259 270 289 288 302 19 45 352 43 63 66 58 50 42 52 149 130 121 134 138 160 176 181 170 171 153 145 150 149 149 167 200 236 233 250
231 239 248 261 272 271 288 65 36 304 257 56 9 357 7 343 285 348 52 58 58 60 69 66 63 66 86 91 124 177 189 187 193 189 165 155 159 160 170 198 218 221 219 245
223 227 234 250 259 265 328 17 285 259 24 50 20 1 350 313 327 24 38 46 54 51 52 54 66 51 32 81 129 205 187 194 192 159 159 166 180 185 192 216 244 219 212 243
251 245 236 241 249 251 86 207 296 14 40 32 15 2 355 358 21 23 37 47 50 50 60 62 68 70 60 73 139 217 252 129 115 133 163 181 184 198 176 177 246 245 217 237
245 255 269 258 263 58 100 26 26 17 10 7 1 351 358 360 22 13 23 33 27 25 86 81 76 77 97 102 105 227 271 117 131 184 213 213 205 199 176 183 214 235 224 231
273 282 273 272 269 281 281 303 7 347 341 354 347 331 325 315 320 328 306 304 315 283 133 114 108 207 192 53 55 277 12 124 184 212 221 226 208 208 201 192 206 216 218 221
288 294 278 272 277 291 282 285 299 325 330 328 331 330 325 308 282 275 271 260 248 254 169 151 185 218 177 56 52 11 349 81 231 230 229 236 199 209 227 213 243 224 230 210
261 265 262 265 283 291 299 326 316 305 301 314 319 316 310 305 272 272 276 274 271 263 206 173 160 152 163 98 75 354 302 253 229 256 276 271 237 223 205 235 287 287 227 202
Height
1486 1488 1489 1487 1485 1485 1485 1488 1491 1489 1487 1491 1495 1496 1495 1496 1499 1501 1503 1506 1509 1511 1513 1515 1516 1517 1518 1519 1520 1521 1521 1522 1523 1524 1524 1525 1526 1527 1527 1528 1528 1528 1529 1530
1485 1487 1483 1482 1482 1484 1485 1489 1490 1488 1486 1490 1494 1494 1492 1494 1496 1499 1501 1504 1507 1510 1512 1514 1516 1517 1518 1519 1520 1521 1521 1522 1523 1523 1524 1525 1526 1527 1527 1528 1528 1529 1529 1529
1485 1484 1481 1482 1483 1485 1486 1489 1490 1491 1488 1488 1492 1497 1492 1491 1495 1498 1501 1503 1505 1508 1511 1513 1515 1517 1518 1519 1520 1520 1521 1522 1522 1523 1524 1525 1526 1526 1527 1527 1528 1528 1529 1529
1482 1480 1481 1483 1484 1485 1490 1485 1487 1490 1494 1496 1492 1506 1495 1490 1493 1496 1499 1502 1504 1507 1510 1512 1514 1516 1517 1518 1519 1520 1521 1521 1522 1522 1523 1524 1525 1526 1527 1527 1528 1528 1529 1529
1482 1481 1482 1485 1484 1485 1486 1484 1486 1488 1492 1495 1490 1498 1495 1487 1493 1494 1497 1500 1503 1506 1509 1511 1513 1515 1516 1517 1518 1519 1520 1520 1521 1522 1523 1523 1524 1525 1526 1527 1527 1528 1528 1528
1480 1480 1481 1482 1482 1483 1483 1484 1484 1485 1491 1503 1489 1494 1499 1489 1488 1491 1494 1499 1502 1505 1507 1510 1512 1513 1515 1516 1516 1517 1518 1519 1520 1521 1522 1522 1523 1524 1525 1526 1526 1527 1527 1528
1482 1479 1479 1482 1484 1483 1485 1493 1502 1503 1506 1500 1482 1489 1494 1484 1483 1487 1492 1496 1500 1503 1506 1508 1510 1512 1513 1514 1515 1516 1516 1517 1518 1520 1521 1521 1522 1523 1524 1525 1525 1526 1526 1527
1486 1487 1480 1481 1484 1487 1485 1490 1505 1513 1506 1496 1484 1492 1489 1483 1485 1488 1491 1495 1499 1502 1504 1506 1508 1510 1511 1512 1513 1514 1515 1516 1517 1518 1519 1520 1521 1522 1523 1523 1524 1524 1525 1525
1486 1486 1478 1479 1481 1483 1486 1487 1484 1494 1493 1496 1491 1488 1486 1483 1486 1489 1492 1495 1498 1501 1503 1505 1507 1508 1509 1510 1511 1512 1513 1514 1515 1517 1518 1519 1520 1520 1521 1522 1522 1523 1523 1524
1482 1488 1479 1478 1481 1481 1482 1484 1488 1495 1505 1506 1496 1492 1494 1489 1489 1490 1492 1495 1497 1500 1502 1504 1505 1507 1508 1509 1510 1511 1512 1513 1514 1515 1516 1517 1518 1519 1519 1520 1520 1521 1521 1522
1481 1487 1483 1480 1483 1484 1484 1486 1487 1491 1493 1505 1508 1504 1486 1487 1488 1489 1491 1494 1496 1499 1500 1502 1503 1505 1507 1508 1508 1509 1510 1511 1512 1513 1514 1515 1516 1517 1517 1518 1519 1519 1519 1520
1481 1485 1486 1479 1476 1477 1480 1484 1487 1499 1498 1493 1502 1504 1483 1485 1486 1488 1490 1493 1496 1498 1500 1501 1502 1503 1505 1506 1507 1508 1508 1509 1510 1511 1512 1513 1514 1514 1515 1516 1516 1517 1518 1518
1485 1487 1492 1489 1487 1482 1481 1481 1484 1488 1492 1495 1502 1501 1483 1484 1485 1487 1490 1492 1495 1497 1499 1500 1501 1502 1503 1504 1505 1506 1506 1507 1508 1509 1509 1510 1511 1512 1513 1514 1514 1515 1516 1516
1488 1487 1491 1496 1489 1484 1484 1483 1483 1488 1495 1495 1493 1491 1485 1485 1486 1487 1489 1491 1494 1496 1497 1499 1500 1501 1502 1503 1504 1504 1504 1504 1505 1506 1507 1508 1509 1509 1510 1511 1512 1513 1513 1514
1487 1487 1484 1481 1478 1479 1481 1482 1482 1485 1485 1491 1488 1487 1484 1483 1485 1486 1488 1490 1492 1494 1495 1497 1498 1499 1500 1501 1502 1502 1502 1503 1503 1504 1504 1505 1506 1507 1508 1508 1509 1510 1511 1512
1485 1486 1485 1483 1478 1478 1480 1478 1478 1479 1480 1482 1484 1484 1480 1481 1483 1485 1487 1489 1491 1492 1493 1495 1496 1497 1498 1499 1499 1500 1500 1501 1501 1501 1502 1502 1503 1504 1505 1506 1506 1507 1508 1509
1484 1485 1489 1488 1479 1478 1482 1474 1475 1476 1475 1478 1483 1482 1480 1481 1483 1485 1486 1488 1490 1491 1492 1493 1494 1495 1496 1497 1497 1498 1498 1498 1499 1499 1499 1500 1501 1501 1502 1503 1503 1504 1505 1506
1484 1486 1488 1488 1487 1492 1478 1468 1469 1473 1474 1473 1475 1477 1479 1481 1483 1484 1486 1487 1488 1489 1490 1491 1492 1492 1493 1494 1495 1495 1496 1496 1496 1497 1497 1498 1498 1499 1499 1500 1501 1501 1502 1503
1481 1485 1489 1490 1490 1483 1474 1470 1470 1475 1476 1474 1475 1477 1478 1480 1482 1484 1485 1486 1487 1488 1489 1490 1490 1491 1491 1492 1492 1493 1493 1494 1494 1495 1495 1496 1496 1497 1497 1498 1498 1499 1500 1500
1479 1481 1487 1489 1492 1490 1478 1472 1471 1474 1479 1475 1475 1477 1478 1480 1484 1485 1485 1485 1486 1487 1487 1488 1488 1489 1489 1490 1490 1490 1491 1492 1492 1492 1493 1493 1494 1495 1495 1496 1496 1497 1497 1497
1481 1482 1486 1488 1489 1481 1474 1473 1473 1483 1482 1477 1477 1478 1479 1480 1482 1483 1483 1484 1485 1485 1486 1486 1486 1487 1487 1487 1487 1488 1488 1489 1489 1490 1490 1491 1492 1492 1493 1493 1494 1494 1494 1495
1478 1480 1481 1482 1486 1484 1474 1474 1477 1478 1476 1477 1477 1478 1479 1479 1480 1481 1481 1482 1483 1483 1484 1484 1485 1485 1485 1485 1485 1485 1485 1487 1487 1487 1487 1488 1489 1490 1490 1490 1490 1491 1491 1492
1472 1474 1474 1476 1479 1474 1473 1474 1475 1476 1477 1477 1477 1478 1478 1479 1479 1480 1480 1481 1481 1482 1482 1482 1482 1483 1483 1483 1483 1483 1484 1484 1484 1485 1485 1486 1487 1487 1487 1487 1488 1488 1488 1488
1470 1469 1471 1472 1471 1472 1473 1474 1475 1476 1476 1477 1477 1477 1477 1477 1478 1478 1479 1479 1479 1480 1480 1480 1480 1480 1480 1481 1481 1481 1482 1482 1482 1482 1483 1483 1484 1484 1484 1485 1485 1485 1485 1485
1472 1471 1471 1472 1471 1471 1472 1473 1473 1474 1475 1475 1476 1476 1476 1476 1476 1476 1477 1477 1477 1477 1477 1478 1478 1478 1478 1478 1478 1479 1479 1479 1480 1480 1480 1481 1481 1481 1481 1481 1481 1481 1481 1482
1470 1470 1472 1471 1470 1471 1471 1471 1472 1472 1473 1474 1474 1474 1474 1474 1473 1474 1474 1474 1475 1475 1475 1475 1476 1475 1476 1476 1476 1476 1476 1477 1478 1478 1478 1478 1478 1478 1477 1477 1478 1478 1479 1479